[[{"header":{"parameterUnit":"m.s-1","parameterCategory":1,"la1":30.2991,"la2":30.254,"lo1":-89.0895,"lo2":-89.0444,"dy":0.0017,"dx":0.0017,"nx":28,"ny":28,"refTime":"2025-09-19T03:00:00:Z","depth":0,"parameterNumber":2,"parameterNumberName":"U-component_of_WINDS"},"data":[0,0,0,0,0,0,0,0,0,0,0,0,0,0,0,0,0,0,0,0,0,0,0,0,0,0,0,0,0,0,0,0,0,0,0,0,0,0,0,0,0,0,0,0,0,0,0,0,0,0,0,0,0,0,0,0,0,0,1.8285,1.8283,0,1.812,1.8118,1.8116,1.8016,1.8015,1.8015,1.8014,1.7849,1.7845,1.7841,0,0,0,0,0,0,0,0,0,0,0,0,0,1.8512,1.8508,1.8285,1.8283,1.8281,1.812,1.8118,1.8116,1.8016,1.8015,1.8015,1.8014,1.785,1.7846,1.7841,0,0,0,0,0,0,0,0,0,0,0,0,0,1.8387,1.8507,1.8286,1.8212,1.8203,1.8121,1.8118,1.8115,1.8016,1.8015,1.8014,1.8014,1.7852,1.7846,1.784,1.7819,0,0,1.7822,1.782,0,0,0,0,0,0,0,0,1.8394,1.8379,1.8225,1.8217,1.8207,1.8088,1.8137,1.8016,1.8016,1.8087,1.8014,1.8013,1.7929,1.7917,1.7888,1.7812,1.7804,1.7822,1.7818,1.7816,1.7814,0,0,0,0,0,0,0,1.8403,1.8385,1.822,1.8223,1.8212,1.8186,1.8168,1.8114,1.8015,1.8081,1.8073,1.8055,1.7924,1.7894,1.7883,1.7802,1.7822,1.7817,1.7813,1.7811,1.7694,1.7694,0,0,0,0,0,0,1.8423,1.8393,1.8225,1.8215,1.8301,1.8183,1.8162,1.8127,1.8015,1.7997,1.8056,1.8051,1.7904,1.789,1.7877,1.7841,1.7816,1.781,1.7807,1.7693,1.7694,1.7694,0,0,0,0,0,0,1.8429,1.8409,1.8232,1.8302,1.8277,1.818,1.8141,1.8124,1.8093,1.7996,1.7978,1.8043,1.7903,1.7885,1.7833,1.7834,1.7808,1.7802,1.7693,1.7694,1.7694,1.7772,0,0,0,0,0,0,1.8436,1.8412,1.8404,1.8302,1.8274,1.8191,1.8141,1.8121,1.8083,1.8075,1.7979,1.7962,1.7901,1.7842,1.7827,1.7825,1.7798,1.7692,1.7693,1.7694,1.7769,1.7775,1.778,0,0,0,0,0,1.8444,1.8434,1.8404,1.8384,1.8262,1.8191,1.8175,1.8104,1.8084,1.8073,1.801,1.7965,1.7836,1.7837,1.782,1.7816,1.7692,1.7693,1.7694,1.7766,1.7774,1.778,0,0,0,0,0,0,1.8541,1.842,1.8385,1.8342,1.8277,1.8174,1.816,1.8115,1.8056,1.8051,1.7966,1.7945,1.79,1.7853,1.7857,1.7787,1.7759,1.7756,1.782,1.7826,1.7832,1.7844,1.7793,0,0,0,0,0,1.8556,1.8509,1.8406,1.8378,1.8347,1.8259,1.8226,1.8176,1.8106,1.8079,1.8012,1.7947,1.789,1.7856,1.7799,1.7761,1.7737,1.7749,1.7755,1.7761,1.7759,1.7731,1.7734,1.7698,1.7698,1.7698,0,0,1.859,1.8518,1.8494,1.8396,1.834,1.8292,1.8237,1.819,1.8153,1.8072,1.8017,1.7965,1.7886,1.7839,1.7815,1.7799,1.7764,1.7762,1.7767,1.7762,1.7732,1.7736,1.7739,1.7698,1.7698,1.7698,0,0,1.8625,1.8567,1.8535,1.8479,1.8393,1.8334,1.8326,1.8229,1.819,1.8133,1.807,1.8024,1.7931,1.7876,1.7836,1.7843,1.7799,1.7827,1.7858,1.7831,1.7834,1.7836,1.7836,1.7838,1.7827,1.7827,1.7827,0,1.8677,1.8602,1.8525,1.8479,1.8436,1.8357,1.8323,1.8272,1.8174,1.8146,1.8128,1.8005,1.7947,1.7883,1.7884,1.7856,1.7842,1.7838,1.784,1.7841,1.7842,1.7841,1.7842,1.7831,1.783,1.783,1.7829,0,1.8669,1.8617,1.8602,1.8505,1.846,1.8421,1.8335,1.8299,1.8252,1.8194,1.8134,1.8061,1.7985,1.7967,1.7922,1.7896,1.7887,1.7856,1.7826,1.7851,1.7848,1.7847,1.7836,1.7835,1.7834,1.7833,0,0,1.8764,1.862,1.8616,1.8569,1.8466,1.8425,1.838,1.8304,1.8273,1.8207,1.8165,1.8085,1.8053,1.8008,1.7955,1.7932,1.7938,1.7902,1.7899,1.791,1.7901,1.7924,1.7925,1.7908,1.7907,1.7907,1.7906,0,1.8782,1.8697,1.8623,1.8565,1.8514,1.8436,1.8396,1.8328,1.8272,1.822,1.8158,1.8101,1.8065,1.8036,1.801,1.7943,1.7935,1.7942,1.7868,1.7866,1.7889,1.7924,1.795,1.7953,1.7905,1.7905,1.7905,0,1.8793,1.8726,1.8663,1.856,1.8536,1.8502,1.8423,1.8375,1.8296,1.8256,1.8202,1.8145,1.8092,1.8067,1.7991,1.7998,1.7962,1.7925,1.7923,1.7913,1.7887,1.7913,1.7952,1.7952,1.7903,1.7903,1.7903,0,1.8865,1.8759,1.8706,1.8669,1.8549,1.8526,1.8475,1.8394,1.8351,1.8283,1.8254,1.8181,1.8141,1.8086,1.801,1.7999,1.7942,1.7911,1.7906,1.7908,1.7898,1.7899,1.793,1.7877,1.7877,1.7877,1.7877,0,1.8893,1.8856,1.8736,1.8703,1.8658,1.8572,1.853,1.8472,1.84,1.8353,1.8282,1.824,1.8144,1.8089,1.803,1.7975,1.7958,1.7923,1.7908,1.7929,1.7933,1.7904,1.7902,1.7877,1.7877,1.7877,1.7877,0,1.8966,1.8884,1.882,1.871,1.8682,1.8653,1.8558,1.8523,1.846,1.8402,1.8383,1.8285,1.8217,1.8136,1.8043,1.8003,1.7952,1.793,1.7978,1.7969,1.7967,1.7968,1.798,1.7976,1.7929,1.7929,1.793,0,1.8989,1.8958,1.8843,1.8806,1.8756,1.8698,1.8652,1.8565,1.8521,1.8424,1.84,1.8325,1.8261,1.8156,1.8077,1.8004,1.7978,1.7987,1.7967,1.7987,1.7975,1.7977,1.7972,1.7993,1.7994,1.7995,1.7995,0,1.9037,1.8996,1.8934,1.8855,1.8802,1.8737,1.8669,1.8642,1.854,1.8494,1.8422,1.8372,1.8273,1.82,1.8116,1.8063,1.8011,1.8002,1.7996,1.8017,1.8045,1.8027,1.7991,1.8002,1.8002,1.8001,1.8001,1.8,1.9083,1.9051,1.8963,1.8894,1.8832,1.8769,1.8728,1.8659,1.8597,1.8508,1.846,1.8389,1.8305,1.8186,1.8134,1.8076,1.8059,1.8052,1.8049,1.8049,1.8053,1.8055,1.8061,1.8061,1.806,1.806,1.806,0,1.9125,1.9064,1.9001,1.8906,1.885,1.8804,1.8725,1.8682,1.8619,1.8544,1.8481,1.8396,1.8323,1.8236,1.8157,1.8127,1.8101,1.8109,1.811,1.8097,1.8075,1.8087,1.8131,1.8131,1.8131,1.8131,1.8131,1.8131,1.9141,1.9081,1.903,1.8938,1.8876,1.8804,1.8762,1.8701,1.8641,1.8548,1.8486,1.8429,1.8348,1.8262,1.8192,1.8168,1.8141,1.8156,1.8125,1.8106,1.81,1.8094,1.8104,1.8151,1.8151,1.8152,1.8152,1.8152]},{"header":{"parameterUnit":"m.s-1","parameterCategory":1,"la1":30.2991,"la2":30.254,"lo1":-89.0895,"lo2":-89.0444,"dy":0.0017,"dx":0.0017,"nx":28,"ny":28,"refTime":"2025-09-19T03:00:00:Z","depth":0,"parameterNumber":3,"parameterNumberName":"V-component_of_WINDS"},"data":[0,0,0,0,0,0,0,0,0,0,0,0,0,0,0,0,0,0,0,0,0,0,0,0,0,0,0,0,0,0,0,0,0,0,0,0,0,0,0,0,0,0,0,0,0,0,0,0,0,0,0,0,0,0,0,0,0,0,2.4553,2.4556,0,2.4839,2.4842,2.4845,2.4948,2.4947,2.4946,2.4945,2.5235,2.5244,2.5252,0,0,0,0,0,0,0,0,0,0,0,0,0,2.409,2.4098,2.4552,2.4556,2.4559,2.4838,2.4842,2.4846,2.4948,2.4947,2.4946,2.4945,2.5232,2.5243,2.5253,0,0,0,0,0,0,0,0,0,0,0,0,0,2.4325,2.41,2.4552,2.4644,2.4655,2.4837,2.4842,2.4847,2.4948,2.4947,2.4945,2.4944,2.5229,2.5242,2.5254,2.5365,0,0,2.5294,2.53,0,0,0,0,0,0,0,0,2.4311,2.4342,2.4627,2.4638,2.4651,2.4856,2.4786,2.502,2.4949,2.4837,2.4945,2.4943,2.511,2.5133,2.519,2.5378,2.5391,2.5295,2.5303,2.5309,2.5312,0,0,0,0,0,0,0,2.4295,2.433,2.4666,2.4631,2.4646,2.467,2.4702,2.4831,2.4978,2.4847,2.4855,2.4887,2.5116,2.5177,2.5197,2.5395,2.5295,2.5306,2.5314,2.5319,2.5686,2.5688,0,0,0,0,0,0,2.4264,2.4316,2.4656,2.4674,2.4474,2.4679,2.4715,2.4792,2.4977,2.5004,2.4888,2.4891,2.5155,2.5182,2.5208,2.5348,2.5309,2.5321,2.5328,2.5684,2.5686,2.5689,0,0,0,0,0,0,2.4253,2.4293,2.4645,2.4497,2.4544,2.4689,2.4774,2.4798,2.4859,2.5009,2.5035,2.4924,2.5155,2.519,2.5325,2.536,2.5327,2.5338,2.5682,2.5685,2.5688,2.563,0,0,0,0,0,0,2.424,2.4289,2.4333,2.4498,2.4551,2.4758,2.4777,2.4805,2.4881,2.4888,2.5049,2.5074,2.5157,2.5305,2.5337,2.5377,2.5349,2.5679,2.5683,2.5687,2.563,2.5631,2.5632,0,0,0,0,0,2.4223,2.4306,2.4335,2.4376,2.461,2.476,2.4791,2.4885,2.4884,2.4929,2.5025,2.5069,2.535,2.5318,2.5356,2.5399,2.5678,2.5682,2.5686,2.5629,2.5631,2.5632,0,0,0,0,0,0,2.4142,2.4329,2.4364,2.4503,2.4615,2.4777,2.4838,2.4884,2.4998,2.4999,2.511,2.5146,2.5272,2.5349,2.5309,2.5515,2.5516,2.5529,2.546,2.5463,2.5464,2.5443,2.5359,0,0,0,0,0,2.414,2.4247,2.4404,2.4511,2.4566,2.4691,2.476,2.4823,2.4943,2.4991,2.5097,2.5211,2.5325,2.5398,2.5512,2.5641,2.5677,2.5689,2.569,2.5691,2.57,2.5772,2.578,2.5703,2.5703,2.5703,0,0,2.4138,2.4253,2.4314,2.4498,2.4593,2.4699,2.4731,2.4843,2.4923,2.5008,2.5143,2.5223,2.5358,2.549,2.5554,2.5558,2.5729,2.5696,2.5695,2.5705,2.5778,2.5785,2.5791,2.5706,2.5705,2.5705,0,0,2.4188,2.4286,2.4386,2.448,2.4622,2.4705,2.4728,2.4884,2.4941,2.5077,2.5143,2.5238,2.5433,2.5526,2.5598,2.568,2.5724,2.5714,2.572,2.5789,2.5795,2.5801,2.5829,2.5838,2.5722,2.5722,2.5722,0,2.4167,2.4333,2.4431,2.454,2.4618,2.47,2.48,2.4886,2.5057,2.5109,2.5111,2.5356,2.5452,2.5607,2.5626,2.5683,2.5712,2.5697,2.5786,2.5793,2.58,2.5829,2.5839,2.572,2.572,2.572,2.5721,0,2.4299,2.4412,2.4475,2.4639,2.4724,2.4828,2.4941,2.5015,2.5069,2.5151,2.5287,2.5405,2.5543,2.5584,2.5638,2.5745,2.5744,2.5765,2.5769,2.5804,2.5832,2.5844,2.5717,2.5718,2.5718,2.5719,0,0,2.4309,2.4524,2.4546,2.462,2.4782,2.4871,2.4977,2.5112,2.5173,2.5287,2.5379,2.554,2.556,2.5642,2.5707,2.5768,2.5824,2.5782,2.5786,2.5785,2.5947,2.593,2.5942,2.5853,2.5856,2.5858,2.5936,0,2.4381,2.4576,2.4667,2.4821,2.4926,2.5003,2.5095,2.5203,2.5281,2.538,2.5466,2.5579,2.5597,2.5647,2.571,2.5803,2.5858,2.5799,2.5938,2.5942,2.5902,2.5957,2.594,2.6009,2.5948,2.595,2.5951,0,2.4492,2.4606,2.4771,2.4918,2.4965,2.5047,2.5177,2.5271,2.5394,2.5446,2.5536,2.5599,2.5711,2.5706,2.5862,2.5819,2.5881,2.5935,2.594,2.5957,2.5949,2.5975,2.6033,2.6043,2.597,2.5968,2.5967,0,2.4482,2.4677,2.48,2.4862,2.5037,2.5092,2.5167,2.5289,2.5363,2.5476,2.5526,2.565,2.5718,2.5811,2.5904,2.5892,2.605,2.6053,2.6096,2.6093,2.6127,2.6124,2.6195,2.6165,2.6165,2.6165,2.6165,0,2.4553,2.465,2.4798,2.4874,2.4985,2.5087,2.5193,2.5274,2.5381,2.5472,2.5546,2.563,2.5747,2.5846,2.5919,2.6035,2.6066,2.611,2.6128,2.6104,2.6098,2.6147,2.6144,2.6168,2.6167,2.6167,2.6166,0,2.4562,2.4665,2.4804,2.4958,2.4998,2.5073,2.5204,2.528,2.536,2.5475,2.5507,2.5634,2.5753,2.5854,2.6011,2.606,2.6181,2.6203,2.614,2.615,2.6186,2.6181,2.6292,2.6311,2.6267,2.6268,2.6268,0,2.4601,2.4678,2.4839,2.4906,2.498,2.5087,2.5163,2.5265,2.5341,2.5486,2.5543,2.5668,2.5773,2.5959,2.6064,2.6183,2.6209,2.6239,2.6227,2.62,2.6209,2.6203,2.6211,2.624,2.624,2.624,2.624,0,2.4659,2.4705,2.4814,2.4939,2.5028,2.5131,2.5236,2.5286,2.5407,2.5489,2.5612,2.5693,2.5853,2.5975,2.6105,2.6181,2.623,2.6242,2.6258,2.6235,2.6195,2.6216,2.6141,2.624,2.624,2.624,2.624,2.624,2.4685,2.4756,2.488,2.4997,2.5087,2.5182,2.5261,2.535,2.5455,2.5594,2.5646,2.5771,2.589,2.607,2.6146,2.6244,2.6251,2.6274,2.6281,2.6285,2.6281,2.6178,2.6268,2.6268,2.6268,2.6268,2.6268,0,2.4747,2.483,2.4936,2.5081,2.5172,2.521,2.5328,2.5401,2.5511,2.5617,2.5719,2.5858,2.5976,2.6089,2.6212,2.6269,2.6294,2.6298,2.6295,2.6311,2.6267,2.6241,2.6275,2.6275,2.6275,2.6275,2.6275,2.6275,2.479,2.4912,2.4972,2.5139,2.5221,2.5345,2.5408,2.5496,2.5582,2.5735,2.5833,2.5906,2.6015,2.6146,2.6255,2.6285,2.6326,2.6324,2.6359,2.6317,2.6315,2.6313,2.6289,2.6332,2.6332,2.6395,2.6396,2.6396]}]]